This is the latest recevied weather packets stored in our database for station/object N4AN. If no packets are shown the sender has not sent any weather packets the latest 10 day(s).
| Time | Temp. | Humidity | Pressure | Rain* | Wind** | Luminosity | Snow |
|---|---|---|---|---|---|---|---|
| 1777532174 | 24.44° C | 81% | 1007.3 hPa | 0 mm | - | - | - |
| 1777531873 | 24.44° C | 81% | 1007.4 hPa | 0 mm | - | - | - |
| 1777531573 | 24.44° C | 81% | 1007.5 hPa | 0 mm | - | - | - |
| 1777531273 | 24.44° C | 81% | 1007.6 hPa | 0 mm | - | - | - |
| 1777530971 | 25° C | 80% | 1007.6 hPa | 0 mm | - | - | - |
| 1777530669 | 25° C | 79% | 1007.5 hPa | 0 mm | - | - | - |
| 1777530369 | 25° C | 79% | 1007.5 hPa | 0 mm | - | - | - |
| 1777530068 | 25.56° C | 79% | 1007.6 hPa | 0 mm | - | - | - |
| 1777529768 | 25° C | 79% | 1007.5 hPa | 0 mm | - | - | - |
| 1777529467 | 25° C | 79% | 1007.5 hPa | 0 mm | - | - | - |
| 1777529167 | 25° C | 78% | 1007.5 hPa | 0 mm | - | - | - |
| 1777528867 | 25.56° C | 78% | 1007.5 hPa | 0 mm | - | - | - |
| 1777528556 | 26.11° C | 77% | 1007.4 hPa | 0 mm | - | - | - |
| 1777528114 | 26.11° C | 77% | 1007.6 hPa | 0 mm | - | - | - |
| 1777527812 | 25.56° C | 77% | 1007.6 hPa | 0 mm | - | - | - |
| 1777527289 | 25.56° C | 77% | 1007.7 hPa | 0 mm | - | - | - |
| 1777526989 | 25.56° C | 77% | 1007.6 hPa | 0 mm | - | - | - |
| 1777526689 | 25.56° C | 77% | 1007.8 hPa | 0 mm | - | - | - |
| 1777526294 | 26.11° C | 78% | 1007.8 hPa | 0 mm | - | - | - |
| 1777525813 | 25.56° C | 77% | 1008.1 hPa | 0 mm | - | - | - |
| 1777525353 | 26.11° C | 76% | 1008.2 hPa | 0 mm | - | - | - |
| 1777525052 | 26.11° C | 76% | 1008.3 hPa | 0 mm | - | - | - |
| 1777524752 | 26.11° C | 76% | 1008.3 hPa | 0 mm | - | - | - |
| 1777524452 | 26.67° C | 75% | 1008.4 hPa | 0 mm | - | - | - |
| 1777524151 | 26.67° C | 76% | 1008.4 hPa | 0 mm | - | - | - |
* Rain latest hour (hover to see other rain measurements)
** Current wind speed in m/s (hover to see current wind gust speed)